
    C/2009 Y1 (Catalina)
T 2011 Jan. 27.73596 TT                                 Nakano
q   2.5264325            (2000.0)            P               Q
                   Peri.  127.12127     +0.64836511     +0.69020965
                   Node   160.32822     -0.28359237     -0.17270014
e   1.0            Incl.  107.35890     +0.70653949     -0.70269858
From 70 observations 2009 Dec. 17-2010 Jan. 25.

NAKANO
         **** Don't distribute anyone except personal use only ****
           (C) Copyright 2010 Orbit.Astro.Assoc./ComputingSection
write mail from CFAD0::NAKANO on 2010-01-27 08:20:36(JST).
 

C/2009 Y1の軌道と予報位置

 彗星は,年末には14等級まで明るくなるでしょう.

    C/2009 Y1 (Catalina)
T 2011 Jan. 28.28362 TT                                 Nakano
q   2.5515072            (2000.0)            P               Q
                   Peri.  126.58085     +0.64155994     +0.69622410
                   Node   160.29165     -0.28315305     -0.17516179
e   1.0            Incl.  107.29638     +0.71289915     -0.69612524
From 49 observations 2009 Dec. 17-29.
 
Date/        TT  R.A.(2000) Decl.     Delta   r     Daily motion  Mag.  Moon Age
              h    h  m       。  ,                      ,  / PA 。  m1      。
2010 Jan.  1 18  12 15.36  +48 31.4   4.221  4.683    17.6 /   6  18.3   60  .99
           2 18  12 15.54  +48 49.0   4.203  4.676    17.8 /   5  18.3   53  .94
           3 18  12 15.71  +49 06.7   4.186  4.668    17.9 /   5  18.3   50  .88
           4 18  12 15.86  +49 24.5   4.169  4.660    18.1 /   4  18.3   50  .79
           5 18  12 15.98  +49 42.6   4.152  4.653    18.3 /   3  18.3   52  .68
           6 18  12 16.09  +50 00.8   4.136  4.645    18.4 /   2  18.3   58  .58
           7 18  12 16.17  +50 19.2   4.119  4.638    18.6 /   2  18.2   64  .47
           8 18  12 16.23  +50 37.8   4.103  4.630    18.7 /   1  18.2   72  .36
           9 18  12 16.27  +50 56.5   4.087  4.623    18.9 /   0  18.2   80  .27
          10 18  12 16.28  +51 15.3   4.071  4.615    19.0 / 360  18.2   88  .18
          11 18  12 16.27  +51 34.4   4.056  4.607    19.2 / 359  18.2   96  .11
          12 18  12 16.24  +51 53.5   4.041  4.600    19.3 / 358  18.2  104  .06
          13 18  12 16.18  +52 12.8   4.026  4.592    19.4 / 358  18.1  111  .02
          14 18  12 16.09  +52 32.2   4.011  4.585    19.6 / 357  18.1  117  .00
          15 18  12 15.98  +52 51.8   3.997  4.577    19.7 / 356  18.1  122  .00
          16 18  12 15.84  +53 11.5   3.983  4.570    19.8 / 356  18.1  126  .02
          17 18  12 15.67  +53 31.2   3.969  4.562    20.0 / 355  18.1  127  .05
          18 18  12 15.48  +53 51.1   3.956  4.554    20.1 / 354  18.1  127  .10
          19 18  12 15.25  +54 11.1   3.942  4.547    20.2 / 354  18.1  125  .17
          20 18  12 14.99  +54 31.2   3.930  4.539    20.3 / 353  18.0  121  .24
          21 18  12 14.70  +54 51.3   3.917  4.532    20.4 / 352  18.0  116  .33
          22 18  12 14.38  +55 11.6   3.904  4.524    20.5 / 352  18.0  109  .43
          23 18  12 14.03  +55 31.9   3.892  4.517    20.6 / 351  18.0  102  .53
          24 18  12 13.64  +55 52.2   3.881  4.509    20.7 / 350  18.0   94  .63
          25 18  12 13.22  +56 12.6   3.869  4.502    20.8 / 350  18.0   86  .74
          26 18  12 12.76  +56 33.1   3.858  4.494    20.9 / 349  18.0   77  .83
          27 18  12 12.27  +56 53.6   3.847  4.487    21.0 / 348  17.9   69  .91
          28 18  12 11.74  +57 14.1   3.837  4.479    21.0 / 347  17.9   63  .97
          29 18  12 11.17  +57 34.6   3.826  4.471    21.1 / 347  17.9   58 1.00
          30 18  12 10.56  +57 55.1   3.816  4.464    21.2 / 346  17.9   55 1.00
          31 18  12 09.92  +58 15.6   3.807  4.456    21.2 / 345  17.9   56  .97
     Feb.  1 18  12 09.23  +58 36.1   3.797  4.449    21.3 / 345  17.9   59  .91
NAKANO
         **** Don't distribute anyone except personal use only ****
           (C) Copyright 2010 Orbit.Astro.Assoc./ComputingSection
write mail from CFAD0::NAKANO on 2010-01-09 06:55:05(JST).
 


戻ります。